Location: Fernhill
(41.0167°S, 175.6333°E)
Time: 01:16:21
(UTC+00:00)

Daily predictions for brighter satellites

Satellite Brightness Start Highest point End
(mag) Time Altitude Azimuth Time Altitude Azimuth Time Altitude Azimuth
USA 59 Rocket 4.1 07:25:07 10° WSW 07:32:42 23° SSW 07:40:25 10° SSE
Cosmos 2228 3.8 07:32:18 10° SSE 07:36:07 32° ESE 07:39:51 10° NE
Cosmos 1975 Rocket 3.2 07:33:04 10° N 07:37:24 55° E 07:41:50 10° SSE
Cosmos 2263 4.2 07:34:13 10° SSW 07:39:54 83° ESE 07:45:32 10° NNE
NOAA 6 4.2 07:37:43 10° SSE 07:42:48 51° E 07:47:50 10° N
Cosmos 1741 Rocket 4.1 07:37:44 10° SSW 07:43:01 83° WNW 07:48:13 10° NNE
YAOGAN 1 2.5 07:39:16 10° SSE 07:43:38 84° ENE 07:47:56 10° NNW
Lacrosse 4 Rocket 3.5 07:42:47 10° SSE 07:45:09 15° SE 07:47:31 10° E
Lacrosse 5 rocket 3.7 07:46:07 10° S 07:47:49 12° SSE 07:49:32 10° SE
Cosmos 332 Rocket 3.9 07:44:26 10° SSW 07:49:18 82° WNW 07:54:10 10° NNE
CZ-3 Stage 3 3.3 07:41:40 10° WNW 07:50:16 28° N 07:53:36 11° NE
Cosmos 2297 4.3 07:47:31 10° SSW 07:53:11 60° WNW 07:58:49 10° N
NOSS 3-2 (A) 4.0 07:47:17 10° SSW 07:53:22 40° SE 07:58:04 12° ENE
COBE Rocket 4.1 07:49:51 10° NNE 07:54:29 53° ESE 07:59:19 10° S
Meteor 2-12 Rocket 4.4 07:49:08 10° N 07:55:09 68° E 08:01:14 10° SSE
CZ-2D R/B 4.5 07:52:38 10° S 07:56:22 46° WSW 08:00:05 10° NNW
Cosmos 1634 Rocket 4.2 07:53:13 10° S 07:59:37 81° W 08:05:58 10° N
Radarsat Rocket 4.4 07:54:40 10° SSE 08:01:21 72° ENE 08:08:51 10° N
Cosmos 1603 3.6 07:58:20 10° NNW 08:03:54 70° ENE 08:09:31 10° SSE
Cosmos 1302 Rocket 4.3 07:59:28 10° NNW 08:04:46 74° WSW 08:10:07 10° SSE
Cosmos 1544 Rocket 4.1 08:01:28 10° S 08:05:40 41° ESE 08:09:06 14° NE
Cosmos 1943 4.2 08:04:08 10° NW 08:09:41 53° WSW 08:15:19 10° SSE
Cosmos 2369 Rocket 3.4 08:07:02 10° SW 08:12:16 39° WNW 08:17:26 10° N
Nadezhda 4 Rocket 4.2 08:10:26 10° NNE 08:16:23 51° E 08:22:22 10° SSE
ATLAS 3B R/B 4.3 08:11:45 10° WNW 08:17:35 34° SW 08:23:14 10° SSE
Cosmos 2058 3.1 08:13:51 10° NNE 08:17:43 47° E 08:21:38 10° SSE
SJ-6B 2.5 08:15:40 10° SSE 08:19:22 77° ENE 08:22:57 10° N
Cosmos 1992 Rocket 4.0 08:17:34 10° NNW 08:22:47 87° ENE 08:28:03 10° SSE
BREEZE-M R/B 3.8 08:18:41 10° WSW 08:23:00 88° NW 08:29:10 18° NE
USA 281 4.1 08:18:25 10° SE 08:23:52 27° ENE 08:27:31 17° NNE
Cosmos 1315 Rocket 3.0 08:25:11 10° SSW 08:28:58 64° W 08:32:20 12° N
Cosmos 1862 3.5 08:28:01 23° NNE 08:29:57 43° E 08:33:32 10° SSE
Cosmos 2142 Rocket 4.5 08:23:58 10° S 08:30:12 89° W 08:36:23 10° N
Geosat 4.1 08:27:53 10° SE 08:32:50 52° ENE 08:37:43 10° N
USA 307 4.4 08:31:42 10° W 08:35:24 34° SSW 08:38:46 10° SE
Cosmos 2098 Rocket 3.2 08:30:56 10° S 08:36:06 79° E 08:39:04 21° NNE
Cosmos 1356 Rocket 4.0 08:32:22 10° SSW 08:36:15 52° W 08:39:44 12° N
CZ-4B R/B 3.8 08:32:06 10° SSE 08:36:16 87° ENE 08:40:23 10° NNW
SPOT 5 3.4 08:33:02 10° SSE 08:37:19 35° E 08:39:11 26° NE
CENTAUR R/B 2.9 08:32:50 10° SW 08:37:31 38° WNW 08:40:59 14° N
Cosmos 1536 Rocket 3.5 08:35:11 16° N 08:38:38 64° E 08:43:01 10° SSE
Resurs 01 Rocket 2.1 08:34:54 10° S 08:39:19 64° WSW 08:43:41 10° NNW
Cosmos 1428 Rocket 4.5 08:38:20 10° N 08:44:37 72° E 08:50:58 10° SSE
CZ-4 R/B 1.3 08:41:18 10° SSE 08:44:58 51° E 08:46:09 35° NNE
Meteor 1-31 Rocket 3.0 08:43:16 10° S 08:46:53 64° WSW 08:50:25 10° NNW
USA 215 3.3 08:41:19 10° SE 08:47:46 56° NE 08:54:10 10° NNW
Cosmos 1782 2.6 08:45:26 10° S 08:49:06 75° W 08:50:49 29° N
EXPRESS MD2 2.7 08:46:52 10° SW 08:49:08 43° SSE 08:49:08 43° SSE
Cosmos 1697 Rocket 4.4 08:46:20 10° S 08:50:26 20° SE 08:52:58 15° E
CSL-04 Rocket 3.6 08:49:42 10° SSE 08:55:01 61° E 08:58:16 23° N
Cosmos 1933 3.5 08:59:25 10° S 09:03:13 49° E 09:03:33 47° E
IRIDIUM 103 4.4 09:02:01 33° NNE 09:04:17 63° E 09:09:32 10° S
ERS-1 Rocket 3.6 09:03:53 10° SSE 09:08:32 35° E 09:08:47 35° ENE
Cosmos 1763 Rocket 3.9 09:15:10 39° E 09:15:10 39° E 09:19:48 10° SE
ADEOS 3.5 09:11:16 10° SSE 09:16:32 65° ENE 09:18:18 40° NNE
Helios 1A 3.8 09:15:27 29° NNW 09:17:05 45° W 09:21:03 10° SSW
Feng Yun 1-1 Rocket 4.3 09:12:05 10° SSE 09:17:56 69° ENE 09:20:41 33° N
NOSS 3-2 (C) 3.4 09:11:42 10° SSW 09:18:02 64° SE 09:19:47 42° ENE
USA 267 4.4 09:15:19 15° E 09:20:06 37° SSE 09:26:04 10° SW
CZ-4B R/B 3.2 09:16:21 10° SSE 09:21:46 59° ENE 09:23:05 46° NNE
Cosmos 1092 Rocket 3.9 09:18:54 29° N 09:22:19 83° E 09:28:33 10° S
IRIDIUM 106 4.3 09:20:18 36° N 09:22:33 89° W 09:27:53 10° S
Lacrosse 4 Rocket 1.5 09:19:16 10° SW 09:23:25 64° WNW 09:24:01 56° NNW
Lacrosse 5 rocket 1.6 09:21:55 10° SW 09:25:43 49° SE 09:25:52 49° SE
USA 59 Rocket 4.0 09:19:14 10° SW 09:26:19 20° S 09:32:57 10° SE
BREEZE-M DEB 2.5 09:26:22 83° W 09:26:28 87° SW 09:32:23 10° ESE
CZ-4B DEB 4.2 09:21:42 10° SSE 09:27:18 81° WSW 09:30:35 25° NNW
Cosmos 1346 Rocket 3.2 09:31:21 48° SE 09:31:21 48° SE 09:34:14 10° SSE
MOS 1 4.2 09:25:40 10° SSE 09:31:25 66° ENE 09:32:56 48° NNE
Cosmos 1503 Rocket 4.1 09:26:46 10° SSW 09:32:05 62° ESE 09:33:01 53° ENE
Okean O Rocket 2.2 09:32:01 10° SSE 09:35:25 42° ESE 09:35:25 42° ESE
Cosmos 1606 Rocket 3.8 09:32:19 10° SSW 09:36:42 62° W 09:37:23 53° NW
Cosmos 1833 Rocket 2.5 09:34:39 39° NNW 09:36:52 80° ENE 09:42:33 10° SSE
Spot 2 Rocket 4.4 09:32:24 10° SSE 09:36:14 32° ESE 09:36:14 32° ESE
Terra 1.8 09:32:23 10° SSE 09:36:59 59° E 09:36:59 59° E
Cosmos 540 Rocket 3.6 09:38:19 53° E 09:38:19 53° E 09:43:04 10° SSE
Cosmos 1980 Rocket 3.8 09:34:08 10° S 09:38:26 21° SE 09:39:56 19° ESE
USA 186 4.1 09:38:07 10° S 09:38:54 17° S 09:38:54 17° S
Cosmos 2058 Rocket 3.6 09:38:09 10° S 09:41:59 47° SE 09:41:59 47° SE
Cosmos 2026 Rocket 4.4 09:38:23 20° NNW 09:42:44 61° W 09:49:04 10° S
Cosmos 2084 4.0 09:38:51 10° SW 09:42:58 49° WNW 09:42:58 49° WNW
NOSS 3-2 (A) 4.3 09:38:42 10° SW 09:43:54 32° WNW 09:45:25 27° NW
CZ-4B R/B 4.0 09:40:52 10° SSE 09:45:08 43° ESE 09:45:08 43° ESE
CZ-2C R/B 4.0 09:47:19 10° S 09:49:11 31° S 09:49:11 31° S
Cosmos 2360 4.2 09:45:54 10° SSW 09:51:37 72° WNW 09:52:39 58° NNW
Cosmos 1656 4.2 09:51:30 10° SW 09:56:44 47° WNW 09:57:44 42° NW
SeaSat 1 4.4 09:55:54 16° ESE 09:56:58 17° SE 10:00:07 10° S
Cosmos 1892 Rocket 4.2 09:57:19 49° WNW 09:57:55 53° W 10:02:21 10° S
IRS-1A Rocket 4.2 09:54:21 10° SSE 10:00:16 73° ENE 10:00:48 68° NE
CZ-4B R/B 4.4 09:59:13 10° SSE 10:00:48 25° SSE 10:00:48 25° SSE
BREEZE M DEB (TANK) 4.0 10:08:13 39° ESE 10:08:13 39° ESE 10:14:55 10° ESE
USA 238 DEB 4.0 10:01:33 10° SSW 10:08:02 49° SE 10:09:19 43° E
Cosmos 2221 4.5 10:04:41 10° SSE 10:06:44 20° SE 10:06:44 20° SE
USA 238 4.0 10:01:39 10° SSW 10:08:07 49° SE 10:09:26 43° E
USA 281 3.7 10:02:11 10° SSE 10:08:38 57° WSW 10:14:21 13° NW
SL-08 ROCKET BODY 4.3 10:08:32 67° N 10:09:27 89° W 10:15:36 10° S
Gbstr 26 Del rocket 3.6 10:11:06 10° SW 10:15:26 59° SSW 10:15:26 59° SSW
Cosmos 1626 Rocket 4.5 10:19:12 44° SSE 10:19:12 44° SSE 10:22:15 10° S
CZ-4 R/B 4.3 10:17:29 10° SW 10:18:37 11° WSW 10:19:44 10° W
CZ-2C R/B 4.1 10:22:12 59° S 10:22:12 59° S 10:25:53 10° SSW
Cosmos 2082 Rocket 3.3 10:24:44 31° ESE 10:24:44 31° ESE 10:28:12 10° SE
Cosmos 1898 Rocket 4.5 10:20:12 10° S 10:24:55 37° ESE 10:24:55 37° ESE
Cosmos 2266 Rocket 3.8 10:29:13 82° NE 10:29:24 84° E 10:35:33 10° S
USA 215 4.1 10:24:25 10° SE 10:30:40 48° SSW 10:36:53 10° WNW
Okean-O 3.5 10:28:01 10° S 10:31:54 46° SW 10:31:54 46° SW
Cosmos 1655 Rocket 4.4 10:34:46 48° ESE 10:34:46 48° ESE 10:40:16 10° SSE
Cosmos 489 Rocket 4.3 10:34:35 80° E 10:34:35 80° E 10:40:46 10° SSE
Cosmos 1697 Rocket 2.8 10:29:15 10° SSW 10:34:41 68° W 10:34:41 68° W
Meteor 2-6 Rocket 4.2 10:36:45 10° S 10:42:09 78° S 10:42:09 78° S
Exosat Rocket 4.0 10:43:10 70° ESE 10:43:10 70° ESE 10:48:14 10° SSE
S3M 3.9 10:42:14 10° S 10:48:25 87° SW 10:48:25 87° SW
Ariane Rocket 3.6 10:47:27 10° SSE 10:51:25 53° SSE 10:51:25 53° SSE
Aureole 1 Rocket 4.2 10:52:51 10° SSW 10:56:52 48° SSW 10:56:52 48° SSW
USA 267 3.1 11:02:39 82° NNW 11:02:41 82° NW 11:09:21 10° SW
SPOT 3 Rocket 4.0 10:58:53 10° S 11:03:16 58° SSW 11:03:16 58° SSW
Meteor 1-19 Rocket 4.5 10:59:25 10° S 11:04:57 69° SSE 11:04:57 69° SSE
Cosmos 2315 Rocket 4.0 11:00:41 10° S 11:06:41 80° SW 11:06:41 80° SW
Okean O Rocket 4.0 11:09:21 10° SSW 11:12:02 16° WSW 11:12:41 16° WSW
Terra 4.2 11:11:18 10° SSW 11:14:08 16° WSW 11:15:37 14° W
ATLAS 5 CENTAUR R/B 2.8 11:18:56 63° ESE 11:18:56 63° ESE 11:25:02 10° SE
USA 59 Rocket 3.1 11:10:08 10° SSW 11:19:11 35° SE 11:25:35 15° E
Cosmos 1980 Rocket 2.8 11:17:14 10° SSW 11:21:41 50° WSW 11:21:41 50° WSW
Cosmos 841 Rocket 4.3 11:27:21 47° SSW 11:27:21 47° SSW 11:31:35 10° S
Meteor 1-27 Rocket 4.2 11:25:17 10° S 11:29:46 56° SSE 11:29:46 56° SSE
SeaSat 1 3.5 11:35:30 41° SW 11:35:30 41° SW 11:38:44 10° SSW
Cosmos 2333 Rocket 3.6 11:32:14 10° S 11:37:10 29° SE 11:37:36 29° ESE
Cosmos 1937 Rocket 4.4 11:33:51 10° SSW 11:37:32 44° SW 11:37:32 44° SW
COSMOS 2455 3.3 11:43:02 10° SSW 11:48:36 55° SE 11:48:36 55° SE
